Location: Columbia
(38.9520°N, 92.3340°W)
Time: 14:18:22
(UTC-05:00)

Cosmos 1633 - Visible Passes

Search period start: 24 April 2014 00:00
Search period end: 04 May 2014 00:00
Orbit: 500 x 522 km, 82.5° (Epoch: 24 April)

Date Brightness Start Highest point End Pass type
(mag) Time Alt. Az. Time Alt. Az. Time Alt. Az.
24 Apr 6.1 00:03:12 10° N 00:03:13 10° N 00:03:13 10° N visible
24 Apr 5.9 23:46:53 10° N 23:47:05 11° N 23:47:05 11° N visible
25 Apr 5.7 23:30:35 10° N 23:30:56 12° N 23:30:56 12° N visible
26 Apr 5.6 23:14:20 10° NNE 23:14:48 13° NNE 23:14:48 13° NNE visible
27 Apr 5.4 22:58:07 10° NNE 22:58:39 13° NNE 22:58:39 13° NNE visible
28 Apr 5.3 22:41:58 10° NNE 22:42:30 13° NNE 22:42:30 13° NNE visible
29 Apr 6.0 00:17:23 10° NW 00:17:26 10° NW 00:17:26 10° NW visible
29 Apr 5.3 22:25:54 10° NNE 22:26:21 12° NE 22:26:21 12° NE visible
30 Apr 5.8 00:00:42 10° NNW 00:01:17 13° NW 00:01:17 13° NW visible
30 Apr 5.3 22:10:01 10° NE 22:10:12 11° NE 22:10:12 11° NE visible
30 Apr 5.5 23:44:04 10° NNW 23:45:07 17° NNW 23:45:07 17° NNW visible
01 May 5.1 23:27:29 10° NNW 23:28:58 22° NNW 23:28:58 22° NNW visible
02 May 4.7 23:10:55 10° NNW 23:12:49 27° NNW 23:12:49 27° NNW visible
03 May 4.2 22:54:23 10° N 22:56:40 35° NNW 22:56:40 35° NNW visible
